PSLV R/B, 43620

Orbit data source: Space-Track

PSLV R/B, 43620 is space debris in SSO originally from a launch on Sun, 16 Sep 2018 UTC launched from the Sirharikota (SRI). Debris objects in space refer to the collection of defunct objects orbiting the Earth. Examples of debris include non-operational satellites, rocket bodies, and fragments generated from explosions, collisions, or faulty payload assembly.

Loading next visibility...
Identifier
43620, 2018-071C
Orbit
SSO
Country
Flag of ININ / IND
Related business
Manufacturer
VSSC/LPSC
Mission
Spacecraft
Bus & Motor
PS-4, Unknown motor
Mass
920 kg wet, 920 kg dry
Launch date (UTC)
Icon of a cake. It is the launch day of the satellite!2018-09-16 (7 years ago)
Launch vehicle
Unknown
Launch site
Sirharikota (SRI)
Object type
Payload
Rocket body
Debris
Shape & HBR
Cyl + Cyl + 2 Nozzle, 1.6 m
Radar Cross Section
6.185 m², Large (>1 m²)

Expand to show TLE details & history
Last TLE update: 8 hours ago

TLE from 8 hours ago
0 PSLV R/B
1 43620U 18071C   25259.24095020  .00002005  00000-0  16977-3 0  9997
2 43620  97.4401  82.6632 0026066 336.3520  23.6503 14.98829712381362
Epoch: 2025-09-16T05:46Z
TLE epoch observation values (Epoch: 2025-09-16T05:46:58.097Z)
Latitude
-0.00005°
Longitude
0.48705°
Altitude
556.984 km
Speed
7.592 km/s
True Right ascension
05h 30m 39s
True Declination
0° 00' 00"
Sunlit
Object was in daylight at epoch
Visualization orbit readout
Latitude
Unknown
Longitude
Unknown
Altitude
Unknown
Speed
Unknown
Apparent Right ascension
Unknown
Apparent Declination
Unknown
Sunlit
N/A
Visualization observer readout
Local Sidereal Time
06:58:54
Azimuth
Unknown
Elevation
Unknown
Doppler factor
Unknown
Orbital elements
Apogee altitude
585.611 km
Perigee altitude
549.402 km
Semi-major axis
6,945.644 km
Eccentricity
0.00261
Inclination
97.4401°
RAAN
82.6632°
Arg. of periapsis
336.352°
True anomaly
23.77048°
Mean anomaly
23.6503°
Eccentric anomaly
23.71035°
Mean motion
3.74951 °/min
Orbital period
96.01 mins
BSTAR
0.00016977
Loading maneuver chart data...
Computing Atmospheric mass density...
Loading historical data...
Loading historical data...
Loading historical data...
Loading historical data...
Loading historical data...
Loading historical data...
Loading historical data...
Other satellites on launch #71 in the year 2018 (2018-09-16 UTC)

Documentation

Showing up to 5 results
|